Weather History for Milan, Italy

Change the Weather History Date:

Tuesday, October 9, 2012

  Actual Average Record
Temperature  
Mean Temperature 62 °F -  
Max Temperature 69 °F 61 °F 77 °F (1997)
Min Temperature 55 °F 41 °F 39 °F (2003)
Degree Days  
Heating Degree Days 3    
Growing Degree Days 12 (Base 50)    
Moisture  
Dew Point 55 °F    
Average Humidity 84    
Maximum Humidity 100    
Minimum Humidity 49    
Precipitation  
Precipitation 0.00 in 0.14 in - ()
Sea Level Pressure  
Sea Level Pressure 29.90 in    
Wind  
Wind Speed 1 mph ()    
Max Wind Speed 4 mph    
Max Gust Speed -    
Visibility 6.1 miles    
Events Rain    
Averages and records for this station are not official NWS values.
T = Trace of Precipitation, MM = Missing Value Source: Averaged Metar Reports

Daily Weather History Graph

Daily Weather History Graph

Search for Another Location

Airport:

Trip Planner

Search our weather history database for the weather conditions in past years. The results will help you decide how hot, cold, wet, or windy it might be!

Date:

Astronomy

Oct. 09, 2012 Rise Set
Actual Time 7:33 AM CEST 6:49 PM CEST
Civil Twilight 7:04 AM CEST 7:19 PM CEST
Nautical Twilight 6:29 AM CEST 7:53 PM CEST
Astronomical Twilight 5:55 AM CEST 8:28 PM CEST
Moon 12:36 AM CEST (10/9) 3:23 PM CEST (10/9)
Length of Visible Light 12h 15m
Length of Day
11h 15m
Last Quarter, 39% of the Moon is Illuminated
Oct 9
Last Quarter
Oct 15
New
Oct 22
First Quarter
Oct 29
Full
Nov 7
Last Quarter

Hourly Weather History & Observations

Time (CEST) Temp. Dew Point Humidity Pressure Visibility Wind Dir Wind Speed Gust Speed Precip Events Conditions
12:20 AM 57.2 °F 55.4 °F 94% 30.01 in 6.2 mi Calm Calm - N/A   Scattered Clouds
12:50 AM 59.0 °F 57.2 °F 94% 29.98 in 6.2 mi Calm Calm - N/A   Scattered Clouds
1:20 AM 59.0 °F 57.2 °F 94% 29.98 in 6.2 mi North 1.2 mph - N/A   Scattered Clouds
1:50 AM 59.0 °F 57.2 °F 94% 29.98 in 6.2 mi Calm Calm - N/A   Scattered Clouds
2:20 AM 59.0 °F 57.2 °F 94% 29.95 in 6.2 mi Calm Calm - N/A   Scattered Clouds
2:50 AM 59.0 °F 57.2 °F 94% 29.95 in 6.2 mi Calm Calm - N/A   Scattered Clouds
3:20 AM 59.0 °F 55.4 °F 88% 29.95 in 6.2 mi North 1.2 mph - N/A   Scattered Clouds
3:50 AM 59.0 °F 57.2 °F 94% 29.95 in 6.2 mi North 1.2 mph - N/A   Mostly Cloudy
4:20 AM 59.0 °F 57.2 °F 94% 29.92 in 6.2 mi NNE 2.3 mph - N/A   Mostly Cloudy
4:50 AM 59.0 °F 55.4 °F 88% 29.92 in 5.0 mi Calm Calm - N/A Rain Rain
5:20 AM 59.0 °F 57.2 °F 94% 29.92 in 6.2 mi Calm Calm - N/A   Mostly Cloudy
5:50 AM 57.2 °F 57.2 °F 100% 29.92 in 6.2 mi Calm Calm - N/A   Mostly Cloudy
6:20 AM 57.2 °F 57.2 °F 100% 29.89 in 6.2 mi NNE 2.3 mph - N/A   Mostly Cloudy
6:50 AM 59.0 °F 55.4 °F 88% 29.89 in 6.2 mi NNE 3.5 mph - N/A   Mostly Cloudy
7:20 AM 57.2 °F 55.4 °F 94% 29.89 in 6.2 mi Variable 1.2 mph - N/A   Scattered Clouds
7:50 AM 57.2 °F 55.4 °F 94% 29.89 in 6.2 mi Variable 2.3 mph - N/A   Mostly Cloudy
8:20 AM 57.2 °F 55.4 °F 94% 29.89 in 6.2 mi North 2.3 mph - N/A   Mostly Cloudy
8:50 AM 57.2 °F 55.4 °F 94% 29.89 in 6.2 mi Variable 2.3 mph - N/A   Mostly Cloudy
9:20 AM 59.0 °F 55.4 °F 88% 29.89 in 6.2 mi Variable 1.2 mph - N/A   Mostly Cloudy
9:50 AM 59.0 °F 55.4 °F 88% 29.92 in 6.2 mi Variable 2.3 mph - N/A   Mostly Cloudy
10:20 AM 60.8 °F 53.6 °F 77% 29.92 in 6.2 mi Calm Calm - N/A   Mostly Cloudy
10:50 AM 62.6 °F 53.6 °F 72% 29.89 in 6.2 mi Variable 1.2 mph - N/A   Mostly Cloudy
11:20 AM 64.4 °F 53.6 °F 68% 29.89 in - Calm Calm - N/A   Clear
11:50 AM 64.4 °F 53.6 °F 68% 29.89 in - Variable 1.2 mph - N/A   Clear
12:20 PM 66.2 °F 53.6 °F 64% 29.89 in - Calm Calm - N/A   Clear
12:50 PM 66.2 °F 53.6 °F 64% 29.89 in - Variable 2.3 mph - N/A   Clear
1:20 PM 68.0 °F 53.6 °F 60% 29.86 in - Variable 1.2 mph - N/A   Clear
1:50 PM 68.0 °F 53.6 °F 60% 29.86 in - Variable 2.3 mph - N/A   Clear
5:50 PM 69.8 °F 50.0 °F 49% 29.83 in - Variable 2.3 mph - N/A   Clear
6:20 PM 68.0 °F 55.4 °F 64% 29.83 in - Calm Calm - N/A   Clear
6:50 PM 68.0 °F 53.6 °F 60% 29.83 in - Variable 1.2 mph - N/A   Clear
7:20 PM 62.6 °F 55.4 °F 77% 29.86 in - Calm Calm - N/A   Clear
7:50 PM 60.8 °F 55.4 °F 82% 29.86 in - Calm Calm - N/A   Clear
8:20 PM 59.0 °F 53.6 °F 82% 29.86 in - Calm Calm - N/A   Clear
9:20 PM 57.2 °F 53.6 °F 88% 29.86 in - Calm Calm - N/A   Clear
9:50 PM 55.4 °F 53.6 °F 94% 29.86 in - Calm Calm - N/A   Clear
10:20 PM 55.4 °F 53.6 °F 94% 29.86 in - Calm Calm - N/A   Clear
10:50 PM 59.0 °F 55.4 °F 88% 29.86 in - Variable 3.5 mph - N/A   Clear
11:20 PM 59.0 °F 57.2 °F 94% 29.89 in - Variable 2.3 mph - N/A   Clear
11:50 PM 57.2 °F 55.4 °F 94% 29.89 in - Variable 2.3 mph - N/A   Clear